User: anonymous   Login
Location: Unspecified
(0.0000°N, 0.0000°E)
Time: 19:41:17
(UTC+00:00)
Language:

LAPAN A2 - Orbit

View from above orbital plane
View from above orbital plane
View from above satellite
View from above satellite

Ground track
Ground track

The orbit data is extracted from the following two-line orbital elements,

1 40931U 15052B   18146.02593750  .00000721  00000-0  11407-4 0  9998
2 40931   5.9979 308.1657 0013399  51.3065 240.0850 14.76576768143715
Epoch (UTC): 26 May 2018 00:37:21
Eccentricity: 0.0013399
inclination: 5.9979°
perigee height: 631 km
apogee height: 649 km
right ascension of ascending node: 308.1657°
argument of perigee: 51.3065°
revolutions per day: 14.76576768
mean anomaly at epoch: 240.0850°
orbit number at epoch: 14371

The dashed part of the orbit path shows where the satellite is in the earth's shadow,  

DLR